Other Public Products
Issued by NWS Grand Forks, ND

Home | Current Version | Previous Version | Text Only | Print | Product List | Glossary Off
Versions: 1 2 3 4 5 6 7 8 9 10 11 12 13 14 15 16 17 18 19 20 21 22 23 24 25 26 27 28 29 30 31 32 33 34 35 36 37 38 39 40 41 42 43 44 45 46 47 48 49 50

000
FPUS83 KFGF 200131
OPUFGF
PRAIRIE TO PINES WEATHER ROUNDUP
NATIONAL WEATHER SERVICE EASTERN NORTH DAKOTA/GRAND FORKS ND
800 PM CDT SUN OCT 19 2014

 **SATELLITE DATA USED TO AUGMENT SKY COVER AT AUTOMATED STATIONS**
 *****  WEATHER ACROSS EASTERN NORTH DAKOTA  *****

CITY           SKY/WX    TMP DP  RH WIND       PRES   REMARKS
GRAND FORKS    CLEAR     47  40  76 SW3       29.87R
GRAND FORKS AF CLEAR     48  38  69 NW7       29.89R
GRAND CITY NWS   N/A     48 N/A N/A W3          N/A
BUXTON           N/A     54  39  58 W7          N/A
DEVILS LAKE    CLEAR     46  36  66 NW7       29.92S
FARGO          FAIR      51  40  65 CALM      29.89R
WAHPETON ARPT  CLEAR     54  36  50 N5        29.91R
$$

 *****  WEATHER ACROSS CENTRAL AND WESTERN NORTH DAKOTA  *****

CITY           SKY/WX    TMP DP  RH WIND       PRES   REMARKS
JAMESTOWN      CLEAR     49  37  63 NW7       29.94R
BISMARCK       CLEAR     59  38  45 N6        30.00R
MINOT          CLEAR     54  36  50 SW7       29.97R
MINOT AFB      CLEAR     44  37  74 W7        29.96R
GARRISON         N/A     51  33  50 CALM      29.99R
WILLISTON      CLEAR     45  37  73 CALM      29.99R
DICKINSON      CLEAR     55  37  50 E5        30.01R
HETTINGER      CLEAR     47  34  60 CALM      30.04R
$$

 *****  OTHER OBSERVATIONS NORTHEAST NORTH DAKOTA  *****

CITY           SKY/WX    TMP DP  RH WIND       PRES   REMARKS
WALHALLA         N/A     54  37  54 NW6       29.90R
LANGDON        FAIR      48  32  53 NW6       29.92R
CAVALIER       FAIR      55  39  54 NW6       29.89R
GRAFTON        FAIR      55  39  54 NW10G17   29.88R
CANDO          FAIR      46  36  66 NW6       29.94S
FORT TOTTEN    NOT AVBL
ROLLA          FAIR      50  36  57 W9        29.95S
RUGBY          FAIR      48  39  71 W5        29.96R
 ***** THE ABOVE OBSERVATIONS ARE NON NWS ARE NOT QUALITY
        CONTROLLED AND MAY MIS-REPORT RAIN FOR SNOW...
$$

 *****  OTHER OBSERVATIONS SOUTHEAST NORTH DAKOTA *****

CITY           SKY/WX    TMP DP  RH WIND       PRES   REMARKS
COOPERSTOWN    NOT AVBL
VALLEY CITY    FAIR      50  39  66 W7        29.93R
OAKES            N/A     50  39  66 NW5       29.94S
GWINNER        CLEAR     54  37  54 NW7       29.94S
SHEYENNE NWR     N/A     57  39  51 NW3       29.95S
BUFFALO          N/A     53  34  48 W6          N/A
WYNDMERE         N/A     54  39  58 NW3         N/A
 ***** THE ABOVE OBSERVATIONS ARE NON NWS ARE NOT QUALITY
       CONTROLLED AND MAY MIS-REPORT RAIN FOR SNOW...
$$

  *****  WEATHER ACROSS NORTHERN MINNESOTA  *****

CITY           SKY/WX    TMP DP  RH WIND       PRES   REMARKS
FLAG ISLAND    MOCLDY    52  43  71 NW15      29.83R
WARROAD        CLEAR     46  43  87 CALM      29.86R
ROSEAU         CLEAR     54  45  71 W9        29.85R
HALLOCK        CLEAR     57  41  54 N9        29.87R
THF RVR FALLS  PTCLDY    52  41  66 CALM      29.87S
HALSTAD          N/A     51  39  63 W3          N/A
FOSSTON        CLEAR     45  37  76 CALM      29.89R
BAUDETTE       NOT AVBL
WASKISH        CLEAR     48  45  87 CALM      29.84R
CROOKSTON      CLEAR     48  39  71 CALM      29.88R
$$
  *****  WEATHER ACROSS CENTRAL AND WEST MINNESOTA  *****

CITY           SKY/WX    TMP DP  RH WIND       PRES   REMARKS
BEMIDJI        CLEAR     47  40  74 NW7       29.86R
PARK RAPIDS    CLEAR     54  41  61 NW10      29.86R
WADENA         CLEAR     52  41  66 NW5       29.87S
DETROIT LAKES  CLEAR     52  41  66 NW5       29.90S
MOORHEAD       CLEAR     52  43  71 CALM      29.91R
FERGUS FALLS   CLEAR     54  37  54 N7        29.91R
ELBOW LAKE     FAIR      54  40  59 N6        29.90R
MORRIS MN      CLEAR     55  39  54 N7        29.89R
STAPLES        CLEAR     54  41  62 NW8       29.86R
WHEATON        CLEAR     54  37  54 NW7       29.93R
$$
  *****  WEATHER ELSEWHERE ACROSS MINNESOTA  *****

CITY           SKY/WX    TMP DP  RH WIND       PRES   REMARKS
DULUTH         MOCLDY    57  41  55 NW9       29.76R
INTRNTL FALLS  PTCLDY    46  40  79 NW5       29.80R
ELY            CLOUDY    52  43  71 NW8G20    29.78R
CLOQUET        CLEAR     55  39  54 NW6       29.78R
BRAINERD       CLEAR     56  41  57 NW10      29.84R
HIBBING        FAIR      54  41  61 NW13      29.79R
ALEXANDRIA     CLEAR     58  41  53 NW10      29.89R
SAINT CLOUD    CLEAR     60  42  51 NW9       29.82R
MINNEAPOLIS    CLEAR     64  44  48 W12       29.80R
$$

  *****  WEATHER ACROSS SOUTH DAKOTA  *****

CITY           SKY/WX    TMP DP  RH WIND       PRES   REMARKS
SIOUX FALLS    CLEAR     55  41  59 CALM      29.91R
BROOKINGS      NOT AVBL
WATERTOWN      CLEAR     53  37  54 N8        29.93R
HURON          CLEAR     55  38  52 N7        29.93R
SISSETON         N/A     54  38  54 N8        29.91R
ABERDEEN       CLEAR     55  39  54 N9        29.95R
MITCHELL       CLEAR     58  39  49 NW8       29.93R
PIERRE         CLEAR     54  37  52 NW12      29.97R
MOBRIDGE       CLEAR     54  39  57 N8        29.97R
RAPID CITY     CLEAR     51  40  65 N6        30.06R
$$

  *****  SOME WEATHER IN NEARBY STATES *****

CITY           SKY/WX    TMP DP  RH WIND       PRES   REMARKS
GLASGOW MT     PTCLDY    53  41  63 E12       29.94S
GREAT FALLS MT CLEAR     58  31  35 S12       29.90S
CHEYENNE WY    CLEAR     58  34  40 E6        30.17R
SCOTTSBLUFF NE CLEAR     58  39  49 E3        30.07R
OMAHA NE       CLEAR     59  47  64 S7        29.94R
DES MOINES IA  CLEAR     60  47  61 SW10      29.93F
DAVENPORT IA   CLEAR     56  42  59 S13       29.94F
CHICAGO IL     MOCLDY    52  42  69 S12       29.95F
EAU CLAIRE WI  CLEAR     50  44  80 CALM      29.78S
LA CROSSE WI   CLEAR     58  46  64 S10       29.81F
$$

  *****  SOME NATIONAL WEATHER *****

CITY           SKY/WX    TMP DP  RH WIND       PRES   REMARKS
LA GUARDIA NY  PTCLDY    47  29  49 NW13G25   30.05R
RALEIGH NC     PTCLDY    51  44  77 CALM      30.12R
ATLANTA GA     PTCLDY    62  48  60 CALM      30.10R
NEW ORLEANS LA PTCLDY    70  56  61 E5        30.06R
OKLAHOMA CITY  PTCLDY    66  54  65 S9        30.04R
ALBUQUERQUE NM PTCLDY    59  42  53 E6        30.14F
SALT LAKE CITY CLEAR     63  44  50 W6        30.02R
LOS ANGELES CA PTCLDY    69  62  78 W13       29.84S
BOISE ID       CLEAR     70  37  29 W3        29.87R
SEATTLE WA     PTCLDY    67  54  63 S10       29.69F
$$

*** WEATHER ACROSS MANITOBA...SASKATCHEWAN AND ONTARIO ***
                ***ONTARIO***

CITY           SKY/WX    TMP DP  RH WIND       PRES   REMARKS
GERALDTON      DRIZZLE   37  37 100 SE2       29.76S
THUNDER BAY    CLOUDY    43  43 100 NW2       29.74S
SIOUX LOOKOUT  LGT RAIN  43  43 100 NW9       29.78
TORONTO        PTCLDY    45  34  65 SW3       30.02F
BIG TROUT LK   LGT SNOW  32  32 100 NE3       29.79R
PICKLE LAKE    CLOUDY    39  37  93 NW7       29.73R FOG
DRYDEN         CLOUDY    45  41  87 NW8       29.80R
KENORA         MOCLDY    50  43  76 NW5       29.82R
$$
                *** MANITOBA***

CITY           SKY/WX    TMP DP  RH WIND       PRES   REMARKS
BRANDON        PTCLDY    46  34  61 NW8       29.93R
DAUPHIN        CLEAR     43  37  81 NW3       29.94R
ISLAND LAKE    LGT RAIN  39  39 100 N7        29.85R FOG
PILOT MOUND      N/A     50  36  57 NW8         N/A
THE PAS        MOCLDY    48  41  76 N5        29.92S
THOMPSON       FLURRIES  37  37 100 NW5       29.94R
WINNIPEG       CLEAR     48  39  71 NW8       29.88R
LYNN LAKE      CLOUDY    37  36  93 N5        29.94R
CHURCHILL      CLOUDY    34  32  93 W3        29.91R
GILLAM         FOG       34  34 100 N9        29.92  VSB 1/2
$$
                ***SASKATCHEWAN***

CITY           SKY/WX    TMP DP  RH WIND       PRES   REMARKS
ESTEVAN        PTCLDY    52  39  62 SW7       29.97R
KINDERSLEY     MOCLDY    54  39  58 SE12      29.81F
LLOYDMINSTER   MOCLDY    52  32  46 S10       29.77F
PRINCE ALBERT  PTCLDY    48  37  66 E5        29.87R
REGINA         PTCLDY    54  41  62 S7        29.94F


USA.gov is the U.S. government's official web portal to all federal, state and local government web resources and services.